Weather History for Lafayette, LA

Change the Weather History Date:

Tuesday, May 14, 2013

  Actual Average Record
Temperature  
Mean Temperature 70 °F 76 °F  
Max Temperature 82 °F 86 °F 96 °F (1899)
Min Temperature 58 °F 67 °F 50 °F (1931)
Cooling Degree Days 5 11  
Month to date cooling degree days 48 136  
Year to date cooling degree days 220 390  
Growing Degree Days 19 (Base 50)    
Moisture  
Dew Point 55 °F    
Average Humidity 62    
Maximum Humidity 93    
Minimum Humidity 30    
Precipitation  
Precipitation 0.00 in 0.14 in 2.42 in (2004)
Month to date precipitation 3.92 2.05  
Year to date precipitation 30.31 19.89  
Sea Level Pressure  
Sea Level Pressure 30.22 in    
Wind  
Wind Speed 5 mph (South)    
Max Wind Speed 13 mph    
Max Gust Speed 18 mph    
Visibility 9 miles    
Events      
T = Trace of Precipitation, MM = Missing Value Source: NWS Daily Summary

Daily Weather History Graph

Daily Weather History Graph

Search for Another Location

Airport:

Trip Planner

Search our weather history database for the weather conditions in past years. The results will help you decide how hot, cold, wet, or windy it might be!

Date:

Astronomy

May. 14, 2013 Rise Set
Actual Time 6:14 AM CDT 7:54 PM CDT
Civil Twilight 5:48 AM CDT 8:20 PM CDT
Nautical Twilight 5:16 AM CDT 8:52 PM CDT
Astronomical Twilight 4:43 AM CDT 9:25 PM CDT
Moon 9:54 AM CDT (5/14) 11:44 PM CDT (5/14)
Length of Visible Light 14h 32m
Length of Day
13h 39m
Waxing Crescent, 19% of the Moon is Illuminated
May 14
Waxing Crescent
May 17
First Quarter
May 24
Full
May 31
Last Quarter
Jun 8
New

Hourly Weather History & Observations

Time (CDT) Temp. Dew Point Humidity Pressure Visibility Wind Dir Wind Speed Gust Speed Precip Events Conditions
12:53 AM 64.0 °F 55.0 °F 73% 30.23 in 10.0 mi Calm Calm - N/A   Clear
1:53 AM 63.0 °F 55.0 °F 75% 30.23 in 10.0 mi Calm Calm - N/A   Clear
2:53 AM 62.1 °F 55.9 °F 80% 30.21 in 10.0 mi Calm Calm - N/A   Clear
3:53 AM 61.0 °F 55.9 °F 83% 30.22 in 10.0 mi Calm Calm - N/A   Clear
4:53 AM 60.1 °F 57.9 °F 93% 30.22 in 7.0 mi Calm Calm - N/A   Clear
4:59 AM 60.8 °F 57.2 °F 88% 30.21 in 1.8 mi Calm Calm - N/A   Clear
5:04 AM 60.8 °F 57.2 °F 88% 30.21 in 3.0 mi Calm Calm - N/A   Clear
5:53 AM 59.0 °F 57.0 °F 93% 30.22 in 10.0 mi Calm Calm - N/A   Clear
5:56 AM 57.2 °F 57.2 °F 100% 30.22 in 1.5 mi Calm Calm - N/A   Clear
6:08 AM 59.0 °F 57.2 °F 94% 30.23 in 3.0 mi Calm Calm - N/A   Clear
6:53 AM 59.0 °F 57.9 °F 96% 30.24 in 6.0 mi Calm Calm - N/A   Clear
7:53 AM 66.0 °F 59.0 °F 78% 30.25 in 10.0 mi SSW 4.6 mph - N/A   Clear
8:53 AM 70.0 °F 57.0 °F 63% 30.27 in 10.0 mi SSW 6.9 mph - N/A   Clear
9:53 AM 75.0 °F 55.9 °F 51% 30.27 in 10.0 mi South 6.9 mph - N/A   Clear
10:53 AM 77.0 °F 55.9 °F 48% 30.28 in 10.0 mi South 8.1 mph - N/A   Clear
11:53 AM 79.0 °F 52.0 °F 39% 30.27 in 10.0 mi South 9.2 mph - N/A   Clear
12:53 PM 80.1 °F 50.0 °F 35% 30.25 in 10.0 mi SSW 8.1 mph - N/A   Clear
1:53 PM 81.0 °F 50.0 °F 34% 30.22 in 10.0 mi South 8.1 mph - N/A   Clear
2:53 PM 81.0 °F 51.1 °F 35% 30.20 in 10.0 mi South 6.9 mph - N/A   Clear
3:53 PM 81.0 °F 51.1 °F 35% 30.19 in 10.0 mi South 9.2 mph - N/A   Clear
4:53 PM 80.1 °F 48.0 °F 32% 30.18 in 10.0 mi SSW 9.2 mph - N/A   Clear
5:53 PM 80.1 °F 46.0 °F 30% 30.18 in 10.0 mi South 10.4 mph - N/A   Clear
6:53 PM 77.0 °F 51.1 °F 40% 30.17 in 10.0 mi South 6.9 mph - N/A   Clear
7:53 PM 73.0 °F 57.0 °F 57% 30.17 in 10.0 mi South 10.4 mph - N/A   Clear
8:53 PM 69.1 °F 57.9 °F 68% 30.18 in 10.0 mi SSW 6.9 mph - N/A   Clear
9:53 PM 68.0 °F 57.9 °F 70% 30.19 in 10.0 mi South 3.5 mph - N/A   Clear
10:53 PM 66.9 °F 59.0 °F 76% 30.19 in 10.0 mi Calm Calm - N/A   Clear
11:53 PM 66.0 °F 59.0 °F 78% 30.18 in 10.0 mi South 4.6 mph - N/A   Clear